Regional Weather Roundup
Issued by NWS

Home | Current Version | Previous Version | Text Only | Print | Product List | Glossary On
Versions: 1 2 3 4 5 6 7 8 9 10 11 12 13 14 15 16 17 18 19 20 21 22 23 24 25 26 27 28 29 30 31 32 33 34 35 36 37 38 39 40 41 42 43 44 45 46 47 48 49 50
000
ASHW40 PHFO 251710
RWRHI

WEATHER ROUNDUP FOR HAWAII
NATIONAL WEATHER SERVICE HONOLULU HI
700 AM HST FRI JUL 25 2014

THIS IS AN AUTOMATED REPORT THAT HAS NOT BEEN QUALITY CONTROLLED.

NOTE..."FAIR" INDICATES FEW OR NO CLOUDS BELOW 12,000 FEET WITH NO
SIGNIFICANT WEATHER AND/OR OBSTRUCTIONS TO VISIBILITY.

* - THESE SITES REPORT LIMITED FIELDS

HIZ001>004-251800-
KAUAI-NIIHAU-

CITY           SKY/WX    TMP DP  RH WIND       PRES   REMARKS
LIHUE APT      CLOUDY    77  72  84 NE15      30.02R
PORT ALLEN*      N/A     75 N/A N/A E8G18       N/A
POIPU*           N/A     73 N/A N/A N7G14       N/A
PRINCEVILLE*   NOT AVBL
KOKOLE POINT*  NOT AVBL
MOLOAA DAIRY*  NOT AVBL
WAIMEA HTS*    NOT AVBL
PUU OPAE*      NOT AVBL
PUU LUA*       NOT AVBL
MAKAHA RIDGE*  NOT AVBL
$$

HIZ005>011-251800-
OAHU-

CITY           SKY/WX    TMP DP  RH WIND       PRES   REMARKS
HONOLULU       MOSUNNY   78  65  63 NE10      29.99R
KALAELOA       SUNNY     74  65  73 CALM      30.01R
KANEOHE MCB    MOSUNNY   73  63  69 E7        30.01R
WHEELER FIELD  PTSUNNY   69  65  87 W3        30.02R
BELLOWS*       NOT AVBL
KAHUKU*        NOT AVBL
WHEELER*       NOT AVBL
WAIANAE HARBOR NOT AVBL
DILLINGHAM*      N/A     66  64  94 E1          N/A
KAHUKU TRN*      N/A     75  68  78 E7G16       N/A
KAWAILOA*      NOT AVBL
KII*             N/A     77  68  73 CALM        N/A
MAKUA RANGE*     N/A     73  63  68 E6G12       N/A
OAHU FOREST NW NOT AVBL
SCHOFIELD BRK*   N/A     68  64  88 MISG        N/A
SCHOFIELD S*   NOT AVBL
WAIANAE VLY*   NOT AVBL
KUAOKALA*      NOT AVBL
HONOULIUULI*   NOT AVBL
MOKUOLOE IS*     N/A    N/A N/A N/A MISG        N/A
PALEHUA*       NOT AVBL
WAIAWA PHB*    NOT AVBL
$$

HIZ012>013-251800-
MOLOKAI-

CITY           SKY/WX    TMP DP  RH WIND       PRES   REMARKS
MOLOKAI AIRPT  LGT RAIN  74  72  93 NE6       30.01R FOG
KALAUPAPA      NOT AVBL
MAKAPULAPAI*   NOT AVBL
MOLOKAI 1*     NOT AVBL
PUU ALII*      NOT AVBL
$$

HIZ016-251800-
KAHOOLAWE-

CITY           SKY/WX    TMP DP  RH WIND       PRES   REMARKS
KAHOOLAWE*     NOT AVBL
HAKIOAWA*      NOT AVBL
HONOKANAIA*      N/A     78  66  66 N8G15       N/A
KANELOA*         N/A     73  66  78 NE9G28    30.09R
KEALIALALO*    NOT AVBL
LUA MAKIKA*    NOT AVBL
$$

HIZ014>015-251800-
LANAI-

CITY           SKY/WX    TMP DP  RH WIND       PRES   REMARKS
LANAI CITY     FAIR      68  63  84 NE5       30.05R
LANAI 1*       NOT AVBL
$$

HIZ017>028-251800-
MAUI-

CITY           SKY/WX    TMP DP  RH WIND       PRES   REMARKS
KAHULUI        MOSUNNY   75  66  73 NE10      29.99R
KAPALUA-W MAUI MOSUNNY   73  66  78 NE9       29.99R
HANA AIRPORT   PTSUNNY   75  72  88 E3        30.04S
HANA*          NOT AVBL
HALEAKALA SUMM   N/A     54   5  14 E16G31      N/A
MAALAEA BAY*   NOT AVBL
HALEAKALA*     NOT AVBL
KAUPO GAP*     NOT AVBL
KULA 1*          N/A    N/A N/A N/A E3          N/A
$$

HIZ023>026-251800-
BIG ISLAND OF HAWAII COAST AND LOWER SLOPES-

CITY           SKY/WX    TMP DP  RH WIND       PRES   REMARKS
KAILUA KONA    PTSUNNY   78  70  76 E7        29.94R
HILO           PTSUNNY   71  65  81 W8        30.00R
HONOKAA*       NOT AVBL
KAWAIHAE MWT*  NOT AVBL
KAWAIHAE*        N/A     79 N/A N/A N3G9        N/A
SOUTH POINT*   NOT AVBL
UPOLU AIRPORT* NOT AVBL
KAMUELA*       SUNNY     66  61  82 NE13      30.08R
HAKALAU*         N/A     52  42  68 SW3G10      N/A
KALOKO-HONOKO* NOT AVBL
PALI 2*          N/A     66  59  77 N8          N/A
KEALAKOMO*       N/A     77  64  65 N6G16       N/A
KAUPULEHU*     NOT AVBL
KAPAPALA*        N/A     66  58  76 VRB8        N/A
LOWER KAHUKU*  NOT AVBL
PUHE CS*       NOT AVBL
PUHO CS*       NOT AVBL
PTA KEAMUKU*     N/A     61  52  72 E7          N/A
WAIKOLOA*      NOT AVBL
$$

HIZ027>028-251800-
BIG ISLAND OF HAWAII INTERIOR AND SUMMMITS-

CITY           SKY/WX    TMP DP  RH WIND       PRES   REMARKS
BRADSHAW FIELD CLOUDY    50  32  51 SE5       30.29S
MK VISITOR CEN NOT AVBL
MAUNA KEA*       N/A     43  -9  11 E14         N/A
MAUNA LOA*     NOT AVBL
MAUNA LOA 1*   NOT AVBL
PTA KIPUKA*      N/A     57  52  82 SE5         N/A
PTA RANGE 17*    N/A     55  50  82 SE12G18     N/A
PTA WEST*        N/A     63  55  77 SE7G15      N/A
NENE CABIN*    NOT AVBL
AHUMOA*        NOT AVBL
PTA PORTABLE*  NOT AVBL
PUU MALI*      NOT AVBL
$$

HIC003-251800-
NORTHWEST ISLANDS-

CITY           SKY/WX    TMP DP  RH WIND       PRES   REMARKS
MIDWAY ISLAND  PTCLDY    81  72  74 S9        30.10S
MIDWAY NOS*    NOT AVBL
FRENCH FRIGATE NOT AVBL
$$

PHZ110>124-180-251800-
BUOY REPORTS

STATION/POSITION TIME  TEMP    WIND        PRES    WAVE   SWELL
                       AIR SEA DIR/SP/G            HT/PER HT/DIR
                 (UTC) (F)     (DEG/KT/KT) (MB)    (FT/S) (FT/D)
BUOY 51001       NOT AVBL
BUOY 51101       1700   78 80   60/ 16/ 19 1017.2R   5/ 9   3/100
BUOY 51100       1700   76 77   60/ 14/ 17 1017.1R
BUOY 51003       1600   79 81   30/ 12/ 16 1014.2R   7/ 8   7
BUOY 51004       1619   79 80   60/ 16/ 17 1013.6R   7/ 9   5/100
BARBERS PT BUOY  NOT AVBL
WAIMEA BAY BUOY  1700      80                N/A     3/ 7
KAILUA BAY BUOY  1700      80                N/A     5/ 9
LANAI BUOY       1700      80                N/A     2/11   2/190
BARBERS PT 2     1700      81                N/A     4/ 8   2/160
PAUWELA MAUI     1700      78                N/A     5/ 8
HILO             NOT AVBL
KANEOHE BAY BUOY 1700      79                N/A     4/ 8
HANALEI KAUAI    NOT AVBL
KAHULUI HARBOR   1700   76 80   40/ 10/ 13 1015.3F
HONOLULU HARBOR  1700   78      60/  2/  4 1015.9R
KILO NALU        NOT AVBL
HILO HARBOR      1700   72     230/  6/  8 1015.4R
MOKUOLOE         1700      81              1016.2R
NAWILIWILI       1700      81                N/A
WHOTS BUOY       NOT AVBL
BUOY 51028       NOT AVBL
$$

......................KEY........................................
  SKY/WX - SKY CONDITIONS/PRESENT WEATHER
  TMP    - TEMPERATURE IN FAHRENHEIT
  DWPT   - DEWPOINT IN FAHRENHEIT
  RH     - RELATIVE HUMIDITY IN PERCENT
  WIND   - DIRECTION AND SPEED /MPH FOR ISLANDS...KTS FOR BUOYS/
  PRES   - MEAN SEA LEVEL PRESSURE IN INCHES OF HG
  VSB    - VISIBILITY IN MILES
  HX     - HEAT INDEX
  WCI    - WIND CHILL INDEX
  VRB    - VARIABLE WIND DIRECTION
  N/A    - NOT AVAILABLE



USA.gov is the U.S. government's official web portal to all federal, state and local government web resources and services.